Location: *
(39.6167°S, 171.5333°W)
Time: 22:47:18
(UTC+00:00)

CZ-4C R/B - Pass Details

Date: 13 May 2021
Orbit: 407 x 485 km, 97.7° (Epoch: 15 June)

Event Time Altitude Azimuth Distance (km) Brightness Sun altitude
Rises 16:50:49 0° 165° (SSE) 2,569 6.8 -17.7°
Reaches altitude 10° 16:52:56 10° 162° (SSE) 1,671 5.9 -17.3°
Maximum altitude 16:56:30 64° 79° (E) 528 3.4 -16.6°
Drops below altitude 10° 16:59:56 10° 356° (N) 1,603 5.8 -16.0°
Sets 17:01:56 0° 353° (N) 2,453 6.7 -15.6°
